Regional Weather Roundup
Issued by NWS

Home | Current Version | Previous Version | Text Only | Print | Product List | Glossary On
Versions: 1 2 3 4 5 6 7 8 9 10 11 12 13 14 15 16 17 18 19 20 21 22 23 24 25 26 27 28 29 30 31 32 33 34 35 36 37 38 39 40 41 42 43 44 45 46 47 48 49 50
223
ASUS46 KSEW 250910
RWRWA

WASHINGTON REGIONAL WEATHER ROUNDUP
NATIONAL WEATHER SERVICE SEATTLE WA
200 AM PDT THU MAY 25 2017

NOTE:"FAIR" INDICATES FEW OR NO CLOUDS BELOW 12,000 FEET WITH NO
SIGNIFICANT WEATHER AND/OR OBSTRUCTIONS TO VISIBILITY.

WAZ507-509-555>559-251000-
SEATTLE, TACOMA, EVERETT, AND VICINITY

CITY           SKY/WX    TMP DP  RH WIND       PRES   REMARKS
EVERETT        CLEAR     49  44  83 CALM      29.92S
BOEING FIELD   CLEAR     52  47  83 CALM      29.91F
RENTON         CLEAR     50  45  83 SE3       29.91F
SEATAC AIRPORT CLEAR     50  44  80 CALM      29.91F
JBLM-MCCHORD   CLEAR     44  44  99 S6        29.92S
PUYALLUP         N/A     45  45 100 CALM      29.92S
BREMERTON      CLEAR     41  40  96 CALM      29.92S
JBLM-FT LEWIS  CLEAR     46  43  88 VRB3      29.95
TACOMA NARROWS CLEAR     48  45  89 SW3       29.92F
$$

WAZ001-503-506-510-514-515-251000-
NORTH INTERIOR

CITY           SKY/WX    TMP DP  RH WIND       PRES   REMARKS
BELLINGHAM     CLEAR     45  44  97 CALM      29.92S
FRIDAY HARBOR  CLEAR     44  43  96 CALM      29.93S
PORT ANGELES   CLEAR     49  44  83 W9        29.93S
EDIZ HOOK      FAIR      49  45  84 W5        29.93S
PORT TOWNSEND  NOT AVBL
NAS WHIDBEY    PTCLDY    45  39  79 SE5       29.96S
ARLINGTON      CLEAR     43  36  75 N3        29.94S
BURLINGTON     PTCLDY    48  45  87 NE6       29.92F
$$

WAZ020-022-039-040-504-511-512-251000-
SOUTHWEST INTERIOR

CITY           SKY/WX    TMP DP  RH WIND       PRES   REMARKS
SHELTON        CLEAR     47  44  90 W7        29.91S
OLYMPIA        CLEAR     44  43  96 CALM      29.93S
CHEHALIS       NOT AVBL
KELSO          CLOUDY    49  45  86 CALM      29.94F
VANCOUVER      CLEAR     46  43  89 CALM      29.91F
SCAPPOOSE, OR  PTCLDY    48  43  82 NW3       29.91F
PORTLAND, OR   CLEAR     51  43  74 CALM      29.92S
$$

WAZ021-516-517-251000-
WASHINGTON COAST

CITY           SKY/WX    TMP DP  RH WIND       PRES   REMARKS
FORKS          CLEAR     43  42  97 NE3       29.93F
HOQUIAM        CLEAR     48  47  96 CALM      29.94F FOG
ASTORIA, OR    MOCLDY    46  43  89 CALM      29.94F
$$

WAZ019-023-024-040-567>569-251000-
CASCADE MOUNTAINS AND COLUMBIA GORGE

CITY           SKY/WX    TMP DP  RH WIND       PRES   REMARKS
STAMPEDE PASS  CLEAR     36  34  92 VRB5      29.87F
TROUTDALE, OR  CLEAR     51  44  77 W3        29.91F
THE DALLES, OR CLEAR     54  43  66 NW12      29.84S
$$

WAZ026-027-041>044-520-521-251000-
EAST SLOPES

CITY           SKY/WX    TMP DP  RH WIND       PRES   REMARKS
OMAK           MOCLDY    51  38  60 NW12      29.78S
WENATCHEE      MOCLDY    52  35  52 NW15      29.80F
ELLENSBURG     PTCLDY    49  36  61 NW17      29.82F
YAKIMA         PTCLDY    54  36  50 CALM      29.82S
SUNNYSIDE ARPT NOT AVBL
$$

WAZ028-034-035-251000-
COLUMBIA BASIN

CITY           SKY/WX    TMP DP  RH WIND       PRES   REMARKS
EPHRATA        MOCLDY    55  31  39 NW12      29.77F
MOSES LAKE     PTCLDY    50  35  56 NW9       29.78F
PASCO          PTCLDY    53  37  54 NW8       29.79S
HERMISTON, OR  MOCLDY    51  43  74 SW8       29.80S
$$

WAZ036>038-251000-
NORTHEAST WASHINGTON

CITY           SKY/WX    TMP DP  RH WIND       PRES   REMARKS
SPOKANE GEIGER MOCLDY    47  38  71 W6        29.75S
SPOKANE FELTS  CLOUDY    48  40  73 CALM      29.75F
FAIRCHILD AFB  CLOUDY    44  38  79 W7        29.75S
COEURDALENE,ID CLOUDY    47  39  74 CALM      29.76R
DEER PARK      CLOUDY    44  39  82 CALM      29.76R
$$

WAZ029>033-251000-
SOUTHEAST WASHINGTON

CITY           SKY/WX    TMP DP  RH WIND       PRES   REMARKS
PULLMAN        PTCLDY    45  35  68 CALM      29.76F
LEWISTON, ID   PTCLDY    53  36  52 SW10      29.75R
WALLA WALLA    MOCLDY    52  38  58 S9        29.80R
PENDLETON, OR  MOCLDY    50  40  68 S8        29.80S
$$




USA.gov is the U.S. government's official web portal to all federal, state and local government web resources and services.